Date String (YYYY-MM-DD hh:mm:ss) UTC,Instrument flags,Ambient pressure (hPa),Sample flow (lpm),Bypass flow (lpm),Sample temperature (°C),Ambient temperature (°C),ASC tube jacket temperature (°C),LED temperature (°C),Box temperature (°C),Sample RH (%),Span deviation,Mass concentration (μg/m³),Mass concentration (μg/m³),Mass concentration (μg/m³)
DateTimeUTC,F1_M11,P_M11,Q1_M11,Q2_M11,T1_M11,T2_M11,T3_M11,T4_M11,T5_M11,U1_M11,ZSPAN_M11,X0_M11,X2_M11,X1_M11
2021-12-20 12:00:00,,0825.6,4.99,0.00,23.3,22.5,00.0,32.3,25.0,05.9,0000.0,0000.41,0000.35,0000.34
2021-12-20 12:01:00,,0825.6,5.01,0.00,23.3,22.5,00.0,32.3,25.1,06.0,0000.0,0000.96,0000.35,0000.34
2021-12-20 12:02:00,,0825.6,4.99,0.00,23.4,22.5,00.0,32.3,25.1,06.0,0000.0,0001.64,0000.35,0000.34
2021-12-20 12:03:00,,0825.6,5.01,0.00,23.4,22.5,00.0,32.3,25.1,06.1,0000.0,0001.66,0000.36,0000.34
2021-12-20 12:04:00,,0825.6,4.98,0.00,23.4,22.5,00.0,32.3,25.1,06.1,0000.0,0001.70,0000.38,0000.35
2021-12-20 12:05:00,,0825.6,5.01,0.00,23.4,22.5,00.0,32.3,25.1,06.1,0000.0,0001.71,0000.39,0000.35
2021-12-20 12:06:00,,0825.6,5.01,0.00,23.4,22.5,00.0,32.3,25.2,06.1,0000.0,0001.71,0000.39,0000.35
2021-12-20 12:07:00,,0825.5,5.00,0.00,23.4,22.6,00.0,32.3,25.1,06.1,0000.0,0001.67,0000.38,0000.35
2021-12-20 12:08:00,,0825.6,4.99,0.00,23.4,22.6,00.0,32.3,25.1,06.0,0000.0,0001.67,0000.38,0000.35
2021-12-20 12:09:00,,0825.6,5.00,0.00,23.4,22.6,00.0,32.3,25.1,06.0,0000.0,0001.69,0000.38,0000.35
2021-12-20 12:10:00,,0825.6,4.99,0.00,23.4,22.6,00.0,32.3,25.1,06.0,0000.0,0001.69,0000.39,0000.35
2021-12-20 12:11:00,,0825.6,5.00,0.00,23.4,22.6,00.0,32.3,25.1,06.1,0000.0,0001.72,0000.40,0000.35
2021-12-20 12:12:00,,0825.6,4.99,0.00,23.4,22.5,00.0,32.3,25.1,06.1,0000.0,0001.14,0000.40,0000.36
2021-12-20 12:13:00,,0825.6,5.01,0.00,23.4,22.5,00.0,32.3,25.1,06.1,0000.0,0000.52,0000.41,0000.35
2021-12-20 12:14:00,,0825.6,4.99,0.00,23.4,22.6,00.0,32.3,25.1,06.1,0000.0,0000.49,0000.39,0000.35
2021-12-20 12:15:00,,0825.6,5.01,0.00,23.4,22.6,00.0,32.3,25.1,06.1,0000.0,0000.47,0000.38,0000.35
2021-12-20 12:16:00,,0825.6,4.99,0.00,23.4,22.6,00.0,32.3,25.1,06.0,0000.0,0000.49,0000.39,0000.35
2021-12-20 12:17:00,,0825.6,4.99,0.00,23.4,22.6,00.0,32.3,25.1,06.1,0000.0,0000.51,0000.40,0000.35
2021-12-20 12:18:00,,0825.6,5.02,0.00,23.4,22.5,00.0,32.3,25.0,06.1,0000.0,0000.53,0000.41,0000.36
2021-12-20 12:19:00,,0825.6,4.99,0.00,23.4,22.5,00.0,32.3,25.1,06.1,0000.0,0000.54,0000.41,0000.36
2021-12-20 12:20:00,,0825.6,5.01,0.00,23.4,22.5,00.0,32.3,25.1,06.1,0000.0,0000.53,0000.42,0000.37
2021-12-20 12:21:00,,0825.6,4.99,0.00,23.4,22.5,00.0,32.3,25.1,06.1,0000.0,0000.53,0000.42,0000.37
2021-12-20 12:22:00,,0825.6,5.00,0.00,23.4,22.5,00.0,32.3,25.0,06.1,0000.0,0000.52,0000.41,0000.37
2021-12-20 12:23:00,,0825.6,5.00,0.00,23.3,22.5,00.0,32.3,25.0,06.1,0000.0,0000.50,0000.41,0000.36
2021-12-20 12:24:00,,0825.6,5.01,0.00,23.3,22.5,00.0,32.3,24.9,06.1,0000.0,0000.50,0000.40,0000.36
2021-12-20 12:25:00,,0825.6,4.99,0.00,23.3,22.5,00.0,32.3,24.9,06.2,0000.0,0000.50,0000.41,0000.37
2021-12-20 12:26:00,,0825.6,5.01,0.00,23.3,22.4,00.0,32.3,24.9,06.2,0000.0,0000.50,0000.41,0000.37
2021-12-20 12:27:00,,0825.7,5.01,0.00,23.3,22.4,00.0,32.3,24.9,06.2,0000.0,0000.52,0000.43,0000.38
2021-12-20 12:28:00,,0825.7,4.99,0.00,23.3,22.4,00.0,32.3,25.0,06.2,0000.0,0000.52,0000.42,0000.38
2021-12-20 12:29:00,,0825.6,5.01,0.00,23.3,22.4,00.0,32.3,24.9,06.3,0000.0,0000.54,0000.42,0000.38
2021-12-20 12:30:00,,0825.7,4.99,0.00,23.3,22.4,00.0,32.3,24.9,06.3,0000.0,0000.54,0000.42,0000.37
2021-12-20 12:31:00,,0825.7,5.01,0.00,23.3,22.3,00.0,32.3,24.9,06.3,0000.0,0000.54,0000.42,0000.37
2021-12-20 12:32:00,,0825.7,5.01,0.00,23.3,22.4,00.0,32.3,25.0,06.3,0000.0,0000.55,0000.43,0000.37
2021-12-20 12:33:00,,0825.7,4.99,0.00,23.3,22.4,00.0,32.3,25.0,06.3,0000.0,0000.56,0000.43,0000.38
2021-12-20 12:34:00,,0825.7,5.02,0.00,23.3,22.4,00.0,32.3,25.0,06.3,0000.0,0000.56,0000.43,0000.38
2021-12-20 12:35:00,,0825.7,4.99,0.00,23.3,22.4,00.0,32.3,24.9,06.3,0000.0,0000.56,0000.43,0000.38
2021-12-20 12:36:00,,0825.7,5.00,0.00,23.3,22.3,00.0,32.3,25.0,06.3,0000.0,0000.56,0000.44,0000.38
2021-12-20 12:37:00,,0825.7,5.00,0.00,23.3,22.4,00.0,32.3,24.9,06.3,0000.0,0000.57,0000.44,0000.39
2021-12-20 12:38:00,,0825.7,5.00,0.00,23.3,22.4,00.0,32.3,25.0,06.3,0000.0,0000.54,0000.43,0000.39
2021-12-20 12:39:00,,0825.7,5.01,0.00,23.3,22.4,00.0,32.3,24.9,06.3,0000.0,0000.52,0000.42,0000.39
2021-12-20 12:40:00,,0825.6,4.99,0.00,23.3,22.4,00.0,32.3,24.9,06.3,0000.0,0000.53,0000.43,0000.40
2021-12-20 12:41:00,,0825.6,5.01,0.00,23.3,22.3,00.0,32.3,24.9,06.4,0000.0,0000.55,0000.44,0000.41
2021-12-20 12:42:00,,0825.7,5.01,0.00,23.3,22.3,00.0,32.3,24.9,06.4,0000.0,0000.56,0000.44,0000.41
2021-12-20 12:43:00,,0825.6,4.99,0.00,23.3,22.3,00.0,32.3,24.9,06.4,0000.0,0000.56,0000.45,0000.41
2021-12-20 12:44:00,,0825.7,5.00,0.00,23.3,22.3,00.0,32.3,24.9,06.4,0000.0,0000.55,0000.44,0000.41
2021-12-20 12:45:00,,0825.7,5.01,0.00,23.2,22.3,00.0,32.3,24.9,06.4,0000.0,0000.55,0000.44,0000.41
2021-12-20 12:46:00,,0825.7,5.00,0.00,23.3,22.3,00.0,32.3,24.9,06.4,0000.0,0000.55,0000.44,0000.40
2021-12-20 12:47:00,,0825.7,4.99,0.00,23.2,22.3,00.0,32.3,24.9,06.4,0000.0,0000.53,0000.43,0000.40
2021-12-20 12:48:00,,0825.7,5.00,0.00,23.2,22.3,00.0,32.3,24.9,06.4,0000.0,0000.52,0000.42,0000.40
2021-12-20 12:49:00,,0825.7,5.00,0.00,23.2,22.3,00.0,32.3,24.9,06.4,0000.0,0000.51,0000.42,0000.39
2021-12-20 12:50:00,,0825.7,5.01,0.00,23.2,22.3,00.0,32.3,24.9,06.4,0000.0,0000.51,0000.42,0000.39
2021-12-20 12:51:00,,0825.7,4.99,0.00,23.2,22.3,00.0,32.3,24.9,06.4,0000.0,0000.49,0000.41,0000.39
2021-12-20 12:52:00,,0825.7,5.00,0.00,23.2,22.3,00.0,32.3,24.9,06.5,0000.0,0000.51,0000.42,0000.38
2021-12-20 12:53:00,,0825.7,5.00,0.00,23.2,22.3,00.0,32.3,24.9,06.5,0000.0,0000.51,0000.42,0000.38
2021-12-20 12:54:00,,0825.7,4.98,0.00,23.2,22.3,00.0,32.3,24.9,06.5,0000.0,0000.49,0000.41,0000.38
2021-12-20 12:55:00,,0825.7,5.01,0.00,23.2,22.3,00.0,32.3,24.9,06.5,0000.0,0000.49,0000.41,0000.37
2021-12-20 12:56:00,,0825.7,5.01,0.00,23.2,22.3,00.0,32.3,24.9,06.5,0000.0,0000.55,0000.43,0000.37
2021-12-20 12:57:00,,0825.8,5.00,0.00,23.2,22.3,00.0,32.2,24.9,06.5,0000.0,0000.62,0000.44,0000.37
2021-12-20 12:58:00,,0825.7,4.99,0.00,23.2,22.3,00.0,32.3,24.9,06.5,0000.0,0000.63,0000.45,0000.37
2021-12-20 12:59:00,,0825.7,5.01,0.00,23.2,22.3,00.0,32.2,24.9,06.5,0000.0,0000.74,0000.46,0000.37
